Regional Weather Roundup
Issued by NWS

Home | Current Version | Previous Version | Text Only | Print | Product List | Glossary On
Versions: 1 2 3 4 5 6 7 8 9 10 11 12 13 14 15 16 17 18 19 20 21 22 23 24 25 26 27 28 29 30 31 32 33 34 35 36 37 38 39 40 41 42 43 44 45 46 47 48 49 50
000
ASUS43 KLSX 010707
RWRMO

WEATHER SUMMARY FOR MISSOURI
NATIONAL WEATHER SERVICE SPRINGFIELD MO
200 AM CDT WED JUL 01 2015

NOTE: "FAIR" INDICATES FEW OR NO CLOUDS BELOW 12,000 FEET WITH NO
       SIGNIFICANT WEATHER AND/OR OBSTRUCTIONS TO VISIBILITY.
       CURRENT SKY AND/OR WEATHER CONDITIONS ARE NOT AVAILABLE FOR
       CHILLICOTHE AND FARMINGTON.

MOZ001>031-035>038-043-044-053-054-010800-
...NORTHERN AND WESTERN MISSOURI...

CITY           SKY/WX    TMP DP  RH WIND       PRES   REMARKS
KANSAS CTY INT CLOUDY    70  66  87 E14       29.87F
KANSAS C DTWN  CLOUDY    71  68  90 E15       29.86F
LEE`S SUMMIT   TSTM      68  67  96 SE12G26   29.89F FOG
ST JOSEPH      CLOUDY    74  65  73 E9        29.87F
CHILLICOTHE      N/A     71  69  93 CALM      29.93F
KIRKSVILLE     LGT RAIN  69  67  93 S5        29.93F FOG

$$
MOZ066>068-077>081-088>096-101>105-010800-
...SOUTHWEST MISSOURI...

CITY           SKY/WX    TMP DP  RH WIND       PRES   REMARKS
SPRINGFIELD    MOCLDY    76  70  82 S9        29.90F
JOPLIN         CLOUDY    80  72  76 S15       29.89F

$$
MOZ032>034-039>042-045>050-055>058-069>072-010800-
...CENTRAL MISSOURI...

CITY           SKY/WX    TMP DP  RH WIND       PRES   REMARKS
COLUMBIA       RAIN      73  71  93 NE3       29.95R FOG
JEFFERSON CITY LGT RAIN  74  69  85 NW5       29.94R
ROLLA          CLOUDY    72  70  93 SW3       29.93S
SEDALIA        LGT RAIN  73  69  87 NE7       29.93R FOG
WARRENSBURG    TSTM      70  66  88 N21       29.92R
OSAGE BEACH    CLOUDY    73  68  83 S5        29.91F

$$
MOZ051-052-059>065-010800-
...EAST CENTRAL MISSOURI...

CITY           SKY/WX    TMP DP  RH WIND       PRES   REMARKS
ST LOUIS INTL  CLOUDY    76  69  79 CALM      29.91F
SPIRIT OF STL  CLOUDY    72  70  93 CALM      29.90S
ST CHARLES     CLOUDY    73  71  93 CALM      29.90S

$$
MOZ072>076-082>087-097>100-106>115-010800-
...SOUTH CENTRAL AND SOUTHEAST MISSOURI...

CITY           SKY/WX    TMP DP  RH WIND       PRES   REMARKS
CAPE GIRARDEAU PTCLDY    73  71  93 SW5       29.90F
FARMINGTON     CLOUDY    72  68  88 SW3       29.97S
WEST PLAINS    CLOUDY    74  68  81 SW5       29.96F

$$



USA.gov is the U.S. government's official web portal to all federal, state and local government web resources and services.